カタログに戻る

CZ-6A DEB

運用中PO
NORAD 64656·DEBRIS·🇨🇳 China

打ち上げ Aug 6, 2024 から Taiyuan Satellite Launch Center

Loading…

次のパス (今後24時間)

TLE

最新Source: Space-Track

元期: Sep 13, 2026, 11:27 UTC

1 64656U 24140AEW 26256.47726120  .00002986  00000-0  10272-2 0  9997
2 64656  89.0203 265.1307 0016250 180.6079 179.5103 14.35731821 98615

AllMySatでCZ-6A DEBをリアルタイム追跡

Download on the App Store